Location: Bakov nad Jizerou
(50.4784°N, 14.9394°E)
Time: 15:38:17
(UTC+00:00)

SL-14 R/B - Pass Details

Date: 16 June 2021
Orbit: 518 x 554 km, 82.4° (Epoch: 02 August)

Event Time Altitude Azimuth Distance (km) Brightness Sun altitude
Exits shadow 21:16:18 13° 193° (SSW) 1,621 5.2 -12.6°
Maximum altitude 21:19:49 81° 280° (W) 568 3.4 -12.8°
Drops below altitude 10° 21:23:53 10° 9° (N) 1,841 6.9 -13.1°
Sets 21:26:04 0° 10° (N) 2,736 7.9 -13.2°
